Showing default

GONETS M 11 (M21), 40552

Orbit data source: Space-Track

GONETS M 11 (M21), 40552 is a payload satellite owned by Gonets (CIS) in LEO that was launched on Tue, 31 Mar 2015 UTC via an ROKOT launch vehicle from the Plesetsk Missile And Space Complex (PKMTR). Payload-class satellites include a variety of spacecraft equipped with specific instruments for various scientific and technological missions. These include communications satellites like Starlink; space stations such as the ISS; scientific satellites like the Hubble; Earth observation satellites from companies like Planet Labs, Umbra, and HawkEye 360; GPS; miniature CubeSats for education and research; and military/defense satellites.

Loading next visibility...
Identifier
40552, 2015-020A
Orbit
LEO
Country
Flag of CISCIS
Related business
Manufacturer
Resehetnev ISS
Mission
Operational Commercial Communications
Bus & Motor
STRELA-3M, Unknown motor
Mass
225 kg wet, 225 kg dry
Launch date (UTC)
2015-03-31 (11 years ago)
Launch vehicle
ROKOT
Launch site
Plesetsk Missile And Space Complex (PKMTR)
Object type
Payload
Rocket body
Debris
Shape & HBR
Cyl + 1 Ant, 3.5 m
Radar Cross Section
1.798 m², Large (>1 m²)

Expand to show TLE details & history
Last TLE update: 7 hours ago

TLE from 7 hours ago
0 GONETS M 11 (M21)
1 40552U 15020A   25302.94499427  .00000034  00000-0  17689-3 0  9995
2 40552  82.4877 174.4436 0016029 142.2557 217.9651 12.42865649480131
Epoch: 2025-10-29T22:40Z
TLE epoch observation values (Epoch: 2025-10-29T22:40:47.504Z)
Latitude
0.00004°
Longitude
155.73481°
Altitude
1,507.136 km
Speed
7.107 km/s
True Right ascension
11h 37m 46s
True Declination
0° 00' 00"
Sunlit
Object was in daylight at epoch
Visualization orbit readout
Latitude
Unknown
Longitude
Unknown
Altitude
Unknown
Speed
Unknown
Apparent Right ascension
Unknown
Apparent Declination
Unknown
Sunlit
N/A
Visualization observer readout
Local Sidereal Time
01:12:22
Azimuth
Unknown
Elevation
Unknown
Doppler factor
Unknown
Orbital elements
Apogee altitude
1,504.445 km
Perigee altitude
1,479.216 km
Semi-major axis
7,869.967 km
Eccentricity
0.0016
Inclination
82.4877°
RAAN
174.4436°
Arg. of periapsis
142.2557°
True anomaly
217.85228°
Mean anomaly
217.9651°
Eccentric anomaly
217.90867°
Mean motion
3.10874 °/min
Orbital period
115.8 mins
BSTAR
0.00017689
Loading maneuver chart data...
Computing Atmospheric mass density...
Loading historical data...
Loading historical data...
Loading historical data...
Loading historical data...
Loading historical data...
Loading historical data...
Loading historical data...

Documentation

Showing up to 5 results
|